User: anonymous   Login
Location: East Fork Observatory
(32.9757°N, 94.4485°W)
Time: 23:51:36
(UTC-06:00)
Language:

SPROUT - Orbit

View from above orbital plane
View from above orbital plane
View from above satellite
View from above satellite

Ground track
Ground track

The orbit data is extracted from the following two-line orbital elements,

1 39770U 14029E   19346.75727298  .00000538  00000-0  65422-4 0  9991
2 39770  97.8916  88.9926 0008018 219.4789 140.5838 14.87536347301154
Epoch (UTC): 12 December 2019 18:10:28
Eccentricity: 0.0008018
inclination: 97.8916°
perigee height: 600 km
apogee height: 611 km
right ascension of ascending node: 88.9926°
argument of perigee: 219.4789°
revolutions per day: 14.87536347
mean anomaly at epoch: 140.5838°
orbit number at epoch: 30115

The dashed part of the orbit path shows where the satellite is in the earth's shadow,  

DLR